STARLINK-34010, 63848

Orbit data source: Space-Track

STARLINK-34010, 63848 is a payload satellite owned by SpaceX/Seattle (US) in LEO that was launched on Wed, 07 May 2025 UTC via an FALCON 9 launch vehicle from the Air Force Eastern Test Range (AFETR). Payload-class satellites include a variety of spacecraft equipped with specific instruments for various scientific and technological missions. These include communications satellites like Starlink; space stations such as the ISS; scientific satellites like the Hubble; Earth observation satellites from companies like Planet Labs, Umbra, and HawkEye 360; GPS; miniature CubeSats for education and research; and military/defense satellites.

Loading next visibility...
Identifier
63848, 2025-093N
Orbit
LEO
Country
Flag of USUS
Related business
Manufacturer
SpaceX/Seattle
Mission
Operational Commercial Communications
Bus & Motor
STARLINK V2MO, Unknown motor
Mass
575 kg wet, ~530 kg dry
Launch date (UTC)
2025-05-07 (7 months ago)
Launch vehicle
FALCON 9
Launch site
Air Force Eastern Test Range (AFETR)
Object type
Payload
Rocket body
Debris
Shape & HBR
Box + 2 Pan, 17.7 m
Radar Cross Section
36.964 m², Large (>1 m²)

Expand to show TLE details & history
Last TLE update: 17 hours ago

TLE from 17 hours ago
0 STARLINK-34010
1 63848U 25093N   25348.89108003  .00019866  00000-0  72979-3 0  9996
2 63848  43.0004 196.7716 0001591 268.1175  91.9494 15.27566342 34784
Epoch: 2025-12-14T21:23Z
TLE epoch observation values (Epoch: 2025-12-14T21:23:09.314Z)
Latitude
-0.00005°
Longitude
152.18524°
Altitude
482.903 km
Speed
7.626 km/s
True Right ascension
13h 07m 05s
True Declination
0° 00' 00"
Sunlit
Object was in daylight at epoch
Visualization orbit readout
Latitude
Unknown
Longitude
Unknown
Altitude
Unknown
Speed
Unknown
Apparent Right ascension
Unknown
Apparent Declination
Unknown
Sunlit
N/A
Visualization observer readout
Local Sidereal Time
13:24:47
Azimuth
Unknown
Elevation
Unknown
Doppler factor
Unknown
Orbital elements
Apogee altitude
486.127 km
Perigee altitude
483.943 km
Semi-major axis
6,863.172 km
Eccentricity
0.00016
Inclination
43.0004°
RAAN
196.7716°
Arg. of periapsis
268.1175°
True anomaly
91.96762°
Mean anomaly
91.9494°
Eccentric anomaly
91.95851°
Mean motion
3.8173 °/min
Orbital period
94.31 mins
BSTAR
0.00072979
Loading maneuver chart data...
Computing Atmospheric mass density...
Loading historical data...
Loading historical data...
Loading historical data...
Loading historical data...
Loading historical data...
Loading historical data...
Loading historical data...

Documentation

Showing up to 5 results
|